Orbital Elements at Epoch 2459200.5 (2020-Dec-17.0) TDB
Reference: JPL 20 (heliocentric ecliptic J2000)
Element | Value | Uncertainty (1-sigma) | Units |
e | .1475618038383958 | 6.3319e-08 | |
a | 3.219132602630134 | 3.6644e-08 | au |
q | 2.744111588991041 | 2.0003e-07 | au |
i | 5.218176651642192 | 7.5739e-06 | deg |
node | 18.40241788220889 | 5.4632e-05 | deg |
peri | 315.2492218648256 | 5.895e-05 | deg |
M | 240.9268074021043 | 2.5957e-05 | deg |
tp | 2459898.279528611266 (2022-Nov-14.77952861) | 0.00015996 | TDB |
period | 2109.632107945134 5.78 | 3.6022e-05 9.862e-08 | d yr |
n | .1706458669472254 | 2.9137e-09 | deg/d |
Q | 3.694153616269227 | 4.2051e-08 | au |
|
| | Orbit Determination Parameters
Additional Information
|